GFSSE_925_spd_021.txt.gz
Wind_Speed
19 20 23 24 26 25 25 24 22 21 20 19 18 16 15 15 14 13 13 13 15 14 14 14 13 12 11 11 11 11 10 11 9 7 7 9 9 12 11 13 13 10 8
23 19 22 24 25 24 24 23 22 20 19 18 16 15 15 15 14 15 16 16 15 14 15 15 14 14 14 13 12 12 12 13 12 10 8 9 10 10 12 11 10 9 7
23 20 21 23 24 23 23 22 20 19 18 17 16 16 16 15 16 16 17 16 15 14 15 14 14 15 15 15 15 14 13 12 12 13 9 9 10 11 12 12 12 8 6
26 23 21 21 22 21 21 20 19 18 17 16 16 16 16 16 16 17 16 16 15 14 14 15 15 17 18 18 18 18 16 14 13 12 11 12 12 13 14 13 10 7 6
25 24 22 21 21 21 20 18 17 17 16 16 16 16 15 16 16 16 16 15 15 15 15 17 18 18 17 16 17 18 18 17 15 13 11 13 13 16 17 18 14 9 7
23 22 22 22 21 20 18 17 16 16 15 16 16 15 16 16 16 16 16 17 17 18 20 20 21 21 21 19 18 17 18 17 16 12 12 13 13 14 15 16 16 14 10
23 22 22 22 20 19 17 15 15 15 15 15 15 15 17 17 16 16 16 17 19 19 18 18 18 19 19 21 20 20 17 16 15 13 12 13 12 12 13 15 15 13 11
23 21 20 18 19 18 16 15 15 15 14 14 14 15 16 16 16 15 15 16 16 16 17 16 17 17 17 18 19 20 20 20 18 14 13 13 13 13 12 13 14 15 13
17 18 18 17 17 16 15 14 14 14 14 14 15 15 16 14 14 13 12 12 12 12 13 14 15 15 15 15 16 16 17 18 18 18 15 13 16 15 13 12 14 15 16
17 15 17 17 16 15 14 13 13 13 14 14 14 14 14 13 11 10 9 8 7 8 9 8 10 12 12 12 13 13 14 14 15 14 13 13 14 14 14 14 14 14 14
18 17 17 17 16 14 14 13 13 13 14 14 13 11 11 9 7 6 5 5 5 4 4 4 5 7 10 10 11 12 13 15 15 14 12 13 14 15 14 14 15 14 13
16 17 17 16 14 14 14 14 13 12 12 11 10 8 6 5 4 3 2 2 2 3 3 4 6 7 8 10 12 13 13 14 12 12 12 15 15 16 15 14 15 16 16
14 18 18 16 14 13 11 11 10 10 10 9 7 5 5 4 3 3 2 2 3 5 6 6 6 8 10 12 13 13 13 12 12 12 12 14 15 15 16 15 13 11 12
16 16 16 12 11 11 10 9 8 7 6 4 3 3 3 3 4 4 4 3 3 5 6 6 7 9 12 13 13 13 13 13 12 13 13 15 15 14 15 16 16 15 14
14 15 13 11 10 9 6 7 5 3 2 3 4 4 2 3 4 5 5 4 3 4 6 7 8 9 9 10 10 11 12 12 13 13 14 16 17 16 15 15 15 17 18
12 12 13 12 10 10 6 6 4 4 6 9 7 5 3 4 4 5 5 3 3 5 6 7 8 8 9 9 10 11 12 12 13 16 15 14 17 16 15 14 14 14 15
10 12 14 11 9 9 6 6 8 12 9 17 12 2 2 3 4 4 2 3 6 6 5 4 5 7 8 9 10 12 14 14 14 15 15 14 12 12 12 14 15 15 15
12 12 12 13 15 15 14 10 2 11 12 12 5 2 5 6 3 2 4 4 2 2 4 7 9 9 9 10 13 14 14 16 14 10 4 3 6 9 12 15 18 21 22
12 17 19 21 19 12 11 9 10 7 1 7 9 9 7 3 1 3 2 3 2 4 7 9 8 10 10 11 14 15 14 18 15 6 3 6 9 10 11 16 20 24 25
16 21 25 20 14 4 12 8 6 9 12 10 7 7 6 1 3 2 4 4 5 8 9 12 12 9 7 10 15 13 16 15 10 5 5 8 8 9 12 15 18 19 27
19 22 20 15 8 7 12 16 17 14 8 6 7 3 1 2 4 5 6 8 12 16 16 14 9 10 12 14 15 17 16 9 3 8 10 14 11 13 14 14 17 21 21
17 17 13 9 13 15 20 19 11 13 8 7 4 2 3 4 6 9 11 15 19 13 11 9 10 10 10 11 11 14 5 9 4 12 15 10 15 14 15 18 18 19 19
13 15 16 17 21 21 16 10 9 6 6 2 1 4 6 9 9 11 17 18 16 10 6 7 8 8 10 8 10 6 5 5 18 10 16 16 18 20 20 20 19 19 18
22 21 22 19 16 13 9 5 5 4 3 4 5 7 7 8 11 13 14 15 11 6 5 4 6 7 7 8 8 5 9 13 7 9 12 18 19 23 21 22 21 20 18
21 19 17 16 13 10 10 11 12 13 11 7 5 4 6 10 13 14 15 15 12 7 5 5 5 3 3 4 6 8 9 10 11 10 11 17 19 18 17 17 15 17 17
14 17 17 17 19 17 14 14 14 12 8 5 5 6 10 12 16 20 19 16 9 4 4 4 5 5 3 5 6 6 9 11 13 14 12 17 20 23 20 19 15 17 18

GFSSE_925_spd_024.txt.gz
Wind_Speed
21 23 25 24 25 24 24 23 21 20 18 17 16 15 14 14 13 13 13 14 14 14 13 12 12 12 12 12 13 13 13 13 12 9 12 11 12 13 11 11 12 9 9
24 24 25 24 24 24 23 22 19 18 16 15 14 14 14 14 14 15 16 15 15 14 13 13 14 13 14 14 15 15 14 14 14 11 10 8 12 13 13 13 11 9 7
24 24 23 23 24 23 22 20 18 17 15 15 15 14 14 15 16 15 16 15 14 13 13 14 15 15 16 17 16 16 16 15 14 16 14 9 10 16 15 13 10 10 8
24 24 22 23 23 22 20 18 17 16 15 15 14 14 15 16 17 16 15 14 13 12 13 15 15 15 15 16 17 17 18 17 16 15 11 10 10 16 17 16 12 10 8
23 23 23 24 23 21 19 17 16 15 15 15 15 15 15 16 16 15 14 13 13 14 16 17 18 18 16 17 17 18 18 17 16 12 11 11 11 14 15 15 14 12 10
21 21 22 24 21 19 18 17 15 15 15 14 14 15 15 15 15 14 15 15 16 17 17 17 18 20 20 19 19 17 17 15 14 11 10 11 12 13 14 14 14 12 9
22 18 21 20 18 17 16 15 15 14 14 14 14 14 15 15 15 15 17 16 16 17 16 16 16 16 17 18 19 20 20 19 13 11 10 11 11 11 12 12 13 14 11
24 18 16 17 16 15 14 13 13 13 13 13 13 14 14 15 15 15 15 15 14 14 15 14 14 14 14 15 16 17 17 15 14 13 11 11 12 12 11 11 12 13 12
18 17 15 14 13 14 13 12 12 11 11 11 12 12 13 14 12 12 10 10 10 10 11 11 11 11 12 13 14 15 15 15 13 11 10 10 13 12 11 12 12 12 11
16 14 14 14 13 11 10 10 10 10 10 10 11 11 11 10 9 9 8 5 5 5 5 6 8 9 9 10 12 13 14 12 13 10 10 9 10 11 11 11 12 12 12
13 13 13 14 13 11 10 8 8 9 10 11 10 9 7 5 5 4 3 3 2 2 2 3 4 5 9 11 13 15 15 14 13 11 10 12 13 12 10 9 11 11 12
13 11 10 12 10 10 9 10 8 8 7 5 5 4 3 2 2 2 1 1 1 2 2 2 3 7 9 10 12 14 15 14 13 13 9 13 14 14 12 11 9 9 9
13 11 10 10 10 10 8 9 7 7 5 4 2 1 2 2 2 2 2 1 0 1 1 3 5 5 7 10 11 12 13 15 14 13 11 13 13 13 13 11 10 8 7
12 13 12 11 11 10 10 9 8 6 3 2 1 2 3 3 2 3 2 1 0 1 2 3 3 4 6 8 10 11 12 13 13 13 13 15 14 14 13 11 10 10 11
14 13 12 11 11 11 12 10 9 6 3 3 4 5 4 2 2 3 2 1 1 3 4 5 6 8 9 10 11 11 11 12 12 13 13 16 16 14 13 12 11 10 11
13 12 12 11 12 11 13 12 9 7 4 2 8 13 4 3 3 3 2 1 2 4 5 6 7 9 11 12 13 12 12 14 14 14 15 16 17 15 11 10 10 11 11
13 13 13 13 13 13 13 13 11 9 10 15 16 10 7 5 7 3 2 2 2 2 4 6 7 10 12 13 15 16 16 17 18 17 17 16 15 15 15 13 11 12 13
14 16 16 15 14 14 15 13 6 9 16 14 5 2 3 4 4 3 0 2 3 5 5 7 9 11 13 15 17 19 21 22 23 21 18 13 13 13 13 13 16 16 17
16 19 19 19 20 17 11 4 8 11 10 6 7 8 8 6 3 0 3 4 5 5 7 8 11 13 16 18 19 22 22 22 23 21 16 12 11 11 13 15 18 20 19
16 18 20 21 20 17 13 15 9 7 9 8 7 5 4 3 3 4 4 5 6 8 10 12 13 14 16 17 19 22 19 22 21 16 11 12 14 14 14 15 18 18 20
15 19 20 20 15 12 12 12 11 11 8 6 5 5 4 3 4 5 4 6 9 11 11 10 11 14 16 16 19 21 22 19 10 11 14 17 14 15 18 19 18 20 21
18 19 18 16 12 12 11 12 11 10 7 7 6 4 4 4 4 4 5 8 10 10 10 10 11 14 17 14 15 20 10 17 20 8 19 16 19 18 20 21 21 21 21
18 18 16 14 14 14 14 10 8 8 7 5 2 2 3 2 2 4 7 9 10 12 13 11 11 10 13 14 11 13 10 10 19 21 16 19 17 22 21 22 20 19 19
13 14 15 16 15 11 8 7 5 3 4 3 3 2 0 2 5 8 10 12 13 13 12 11 9 9 10 14 13 13 13 15 10 13 19 20 22 21 22 21 20 21 19
14 16 15 14 12 11 10 10 9 9 7 4 2 3 5 7 10 12 13 14 14 12 10 7 7 11 12 12 14 13 13 14 15 15 12 20 24 23 21 21 21 23 21
14 14 14 14 14 13 12 11 10 9 6 3 3 6 8 11 13 15 15 17 16 13 10 8 12 11 13 12 11 11 12 14 16 17 13 19 22 24 23 22 22 23 24

GFSSE_925_spd_030.txt.gz
Wind_Speed
28 27 25 25 24 23 23 23 21 19 18 17 17 17 17 17 18 19 20 20 21 19 19 19 18 18 18 18 16 15 14 12 10 12 14 15 16 15 15 13 13 13 11
32 30 28 27 25 24 23 22 20 19 17 17 18 18 18 18 18 19 19 19 19 19 18 17 18 18 19 18 17 16 14 11 8 10 14 17 18 19 17 14 13 12 10
30 31 29 28 26 24 22 22 19 19 17 17 18 18 18 18 19 18 18 18 19 18 18 17 19 19 20 20 18 16 13 11 9 7 4 16 20 20 18 17 14 12 13
29 28 30 28 25 23 22 21 18 18 18 17 17 18 17 17 17 17 17 19 19 19 20 21 21 22 23 21 18 14 14 12 9 14 14 19 21 19 17 15 14 11 11
28 24 26 26 24 21 21 20 18 18 17 18 18 17 17 15 16 17 19 19 19 19 20 22 23 23 23 24 22 17 17 20 10 15 14 14 16 16 16 16 16 13 11
26 22 26 21 20 19 19 18 16 17 17 18 18 17 16 16 16 17 18 18 18 19 19 20 20 21 20 21 22 20 20 21 23 14 12 13 14 14 15 15 15 15 13
25 25 23 19 18 18 17 18 18 17 16 17 17 16 16 16 17 16 16 16 17 17 17 17 17 18 19 22 21 19 18 18 20 13 14 16 14 14 15 15 14 14 14
26 25 25 21 17 16 17 18 18 16 16 17 17 16 16 16 16 15 15 14 14 14 15 14 15 16 18 22 22 19 18 21 19 14 16 16 13 14 13 13 15 15 14
21 18 25 23 23 22 19 19 17 16 16 17 16 16 16 15 14 12 11 11 10 10 10 11 12 12 12 16 21 19 19 22 19 12 13 16 15 13 12 12 13 13 13
20 18 21 22 24 22 20 18 17 15 16 17 17 15 14 13 11 10 9 6 7 7 7 7 8 9 8 8 17 18 17 18 19 17 12 15 17 18 14 13 11 11 11
21 21 21 20 20 21 20 18 16 15 16 17 15 13 12 9 9 7 5 4 5 4 5 5 8 8 12 10 9 19 17 16 21 16 12 14 17 18 14 13 12 10 9
19 20 31 25 20 21 18 17 16 18 16 14 10 7 4 6 7 1 2 4 4 6 4 6 7 9 10 11 13 14 15 14 18 17 16 15 17 18 13 12 12 12 12
27 23 22 26 24 21 20 17 16 15 14 11 7 6 6 6 2 3 2 4 5 4 5 8 10 7 12 10 9 11 11 13 16 15 18 16 18 18 15 9 9 11 12
24 25 24 21 21 18 19 18 15 18 15 11 7 6 4 2 3 7 5 7 8 13 10 8 11 10 11 12 12 13 13 14 15 17 16 20 21 19 15 10 7 9 11
26 27 27 22 20 21 17 17 22 18 13 11 7 4 5 5 5 3 6 4 6 7 11 10 12 11 12 14 15 16 17 15 18 17 20 19 19 21 13 6 7 8 10
24 25 22 21 20 18 19 18 19 15 14 11 8 1 1 3 2 3 2 4 3 2 3 7 11 14 12 14 16 17 18 18 17 21 22 19 24 22 8 4 7 10 12
25 25 23 22 22 24 22 20 18 14 10 5 2 3 2 6 5 2 3 1 4 9 11 11 11 12 14 16 16 18 20 18 19 23 20 20 21 14 3 6 8 13 13
25 25 24 22 24 26 23 20 18 12 12 6 5 4 4 6 5 5 2 3 5 9 7 10 11 12 16 17 18 21 17 20 21 20 20 20 21 15 11 10 10 15 14
27 27 21 22 26 26 22 18 8 6 2 4 4 7 8 7 7 8 8 4 6 5 7 8 10 12 15 18 20 21 20 20 19 23 23 17 16 6 8 6 14 18 13
30 28 22 19 19 28 21 9 4 2 1 4 8 7 10 8 8 6 4 4 5 5 7 11 11 12 14 18 18 19 17 15 19 23 19 13 11 13 15 15 13 13 17
30 28 26 21 18 19 13 6 6 6 9 10 10 9 8 7 7 4 5 5 5 6 8 11 12 13 15 15 18 18 16 19 18 18 20 23 21 19 15 13 17 21 17
24 26 27 22 18 17 12 10 9 12 11 11 9 9 7 6 5 4 3 2 5 8 11 11 14 16 12 14 19 19 5 13 14 23 24 20 18 20 18 21 21 17 16
21 23 22 20 20 18 13 14 15 14 15 13 10 11 9 6 3 2 3 5 7 9 12 14 15 13 11 15 16 13 5 4 15 16 17 19 20 23 21 22 21 18 18
15 17 21 22 21 17 18 19 19 15 14 12 15 15 8 4 1 3 6 9 8 10 12 13 13 14 14 14 16 13 21 22 6 8 7 18 21 21 23 23 20 19 19
17 18 17 18 19 19 16 18 16 17 15 12 10 7 3 4 4 4 5 5 9 12 14 17 17 15 12 13 9 13 18 18 14 8 6 12 18 19 20 22 22 22 22
19 19 20 22 18 16 11 10 9 14 13 13 9 3 3 1 4 5 6 9 11 12 15 17 17 13 11 13 17 15 19 12 11 9 5 12 15 20 18 22 25 25 23

GFSSE_925_spd_033.txt.gz
Wind_Speed
28 27 25 25 25 24 24 24 24 24 24 23 24 24 24 25 24 24 23 24 23 22 22 21 21 21 20 20 18 18 18 17 18 19 20 22 21 19 17 16 16 15 14
35 27 26 26 25 24 25 24 23 23 24 24 24 25 24 24 24 23 22 23 23 22 21 21 22 22 21 20 20 19 18 15 12 13 20 21 21 21 20 19 16 17 15
34 29 24 27 27 26 24 22 23 23 24 25 24 24 24 22 23 23 23 23 24 22 22 24 25 25 23 21 21 20 20 15 11 12 15 21 22 21 20 18 16 15 16
37 31 31 28 28 25 23 23 23 24 24 24 24 24 22 22 23 24 25 26 25 23 23 25 26 26 24 21 21 22 29 15 20 21 18 19 21 20 19 19 17 15 13
34 33 32 29 27 25 23 23 23 24 24 24 23 23 21 22 24 25 24 24 23 21 23 26 26 26 24 21 20 23 32 22 17 15 18 19 19 19 19 19 19 18 15
34 34 30 28 26 24 25 24 23 23 24 24 23 22 20 23 24 23 23 23 22 23 23 23 25 27 26 24 23 21 27 19 17 16 19 19 19 17 17 19 20 19 18
38 35 30 28 25 24 22 22 23 23 23 22 21 21 21 23 23 22 21 20 21 20 20 21 21 23 25 22 23 23 21 26 13 17 18 18 16 16 15 15 16 17 18
42 37 31 26 23 20 19 22 23 23 22 21 21 21 21 21 21 20 19 18 18 17 17 18 16 18 21 22 23 22 23 26 16 14 15 15 16 16 15 14 13 14 14
32 37 30 26 21 23 23 22 22 22 21 21 21 20 20 20 18 17 15 14 13 13 13 14 13 13 14 20 21 20 16 25 11 11 16 17 16 16 16 13 13 12 13
25 28 25 24 19 23 21 20 21 22 21 21 21 19 18 17 15 13 11 11 10 10 9 10 10 11 16 7 18 17 13 18 20 13 16 17 17 15 16 15 13 12 12
23 23 19 17 21 22 22 21 21 21 21 21 21 19 16 15 13 10 9 8 8 8 9 9 10 11 11 12 11 12 15 13 19 18 15 15 16 13 13 15 12 12 12
27 18 21 19 24 24 22 21 22 23 21 20 17 14 12 11 9 7 7 7 9 9 7 10 6 9 10 12 10 12 11 9 12 17 18 16 17 13 11 11 10 9 11
34 28 26 22 26 24 24 24 25 23 20 16 11 10 10 10 10 4 5 5 2 6 6 9 11 8 11 13 12 12 12 13 11 14 14 19 19 16 11 7 8 10 12
29 28 25 28 27 25 26 26 24 22 17 15 13 9 9 10 12 10 12 9 14 14 9 8 7 5 6 9 14 13 14 14 13 13 17 18 17 18 8 4 7 8 10
34 31 31 32 28 26 26 23 20 24 20 16 13 9 10 10 12 10 10 9 7 4 3 6 7 10 9 9 10 12 13 15 12 13 17 18 19 15 4 5 7 8 9
30 31 30 26 24 24 24 28 28 22 20 16 11 9 8 9 9 7 8 5 1 6 6 6 8 8 7 8 10 12 14 11 12 16 17 16 17 14 8 0 5 9 8
30 32 28 27 21 29 27 25 24 22 19 15 6 2 6 9 10 9 6 4 4 4 5 6 4 3 4 8 10 13 12 15 18 15 16 19 21 17 7 3 6 9 7
37 32 29 24 24 25 23 21 19 16 14 9 7 6 6 8 8 8 6 5 6 7 5 4 3 5 9 10 12 11 16 16 13 17 21 16 19 12 2 5 9 8 7
38 35 29 26 28 26 23 21 15 11 8 9 10 11 12 11 9 7 6 7 6 4 3 4 8 11 7 9 11 12 11 13 16 15 18 19 18 19 9 5 9 12 13
40 35 33 32 29 27 23 17 9 8 7 9 14 15 14 15 10 6 7 7 3 0 4 8 8 6 11 11 12 11 12 13 9 12 17 17 16 14 14 16 17 19 18
40 37 35 35 30 28 24 15 12 13 15 17 17 16 12 12 10 12 11 7 4 3 6 6 8 11 11 12 10 18 16 3 13 13 17 16 14 14 15 18 20 19 16
37 37 35 33 30 28 23 13 9 15 16 19 18 16 13 14 9 6 4 1 3 4 4 9 13 12 7 10 12 14 3 10 15 21 18 17 13 16 17 19 20 17 17
32 36 34 31 25 28 24 14 15 16 17 20 18 17 15 11 9 5 5 1 3 4 8 11 10 8 8 11 8 5 3 2 8 4 16 5 12 18 19 17 16 18 17
30 34 32 29 25 24 23 21 25 26 27 21 21 19 14 10 8 3 4 3 4 4 7 9 13 15 16 11 7 7 11 14 3 4 2 12 11 13 12 15 16 17 18
28 28 25 25 22 25 23 26 29 28 19 21 21 17 13 11 8 9 6 2 2 6 9 11 13 15 13 6 4 9 13 13 15 4 3 4 11 10 13 13 14 21 26
27 27 25 24 25 24 23 27 29 28 27 27 22 17 12 13 9 5 1 4 7 10 11 13 14 15 6 9 13 11 10 9 9 6 3 4 9 13 12 18 18 18 20